Location: Sternwarte_Laufen
(47.9344°N, 12.9346°E)
Time: 16:40:28
(UTC+02:00)

ISS - Pass Details

Date: 12 May 2026
Orbit: 414 x 424 km, 51.6° (Epoch: 21 May)

Event Time Altitude Azimuth Distance (km) Brightness Sun altitude
Rises 22:30:54 0° 267° (W) 2,348 0.6 -15.4°
Reaches altitude 10° 22:33:02 10° 274° (W) 1,487 -0.4 -15.6°
Maximum altitude 22:36:17 48° 350° (N) 555 -2.8 -15.9°
Drops below altitude 10° 22:39:32 10° 66° (ENE) 1,493 -1.1 -16.2°
Enters shadow 22:40:29 - 70° (ENE) 1,866 -0.6 -16.3°
